GSAT0204 (GALILEO 8)

Last updated on Fri Sep 18 2026 00:02:48 GMT+0000 (Coordinated Universal Time)

1 40545U 15017B 26258.80260670 -.00000102 00000+0 00000+0 0 9996 2 40545 56.7566 339.1450 0004699 240.9831 119.0222 1.70476021 33792
UTC large
Height (km)
Speed (km/s)
/
Latitude / Longitude
Inclination (degrees)
Orbital Period (minutes)
Azimuth
Elevation
Range (km)
Doppler Factor

Next 0 passes for location: London (51.5072 / 0.1276)

No passes found over London.
GSAT0204 (GALILEO 8)